Weather in Kazanovo

Russia / Zabaykalsky Krai     51°46′22″N   115°51′48″E
temp.,
°C
wind,
m/s
gust,
m/s
humid.,
%
clouds,
%
prec.,
mm/h
press.,
hPa
HPBL,
m
2 december, thu
thu200:00−4nw9155916 0.7 1002874
03:00−8nw816555 0.7 1007527
06:00−11nw613565 0.0 1010275
09:00−13wnw511630 0.0 1012206
12:00−10nw713558 0.0 1013935
15:00−9nw510560 0.0 1015674
18:00−16w23804 0.0 101824
21:00−18wsw22868 0.0 101912
3 december, fri
fri300:00−19sw119195 0.0 101911
03:00−18w119170 0.0 102010
06:00−20wsw119424 0.0 10209
09:00−21w11955 0.0 10239
12:00−14wnw11765 0.0 102279
15:00−11ssw11735 0.0 1021102
18:00−16s2292100 0.0 102420
21:00−15s238893 0.0 102340
4 december, sat
sat400:00−14s3396100 0.0 102266
03:00−15s239883 0.1 102142
06:00−17ssw229992 0.0 102117
09:00−17ssw2210085 0.0 102118
12:00−11ssw239012 0.0 1018104
15:00−8s34865 0.0 1016105
18:00−14s2292100 0.0 101718
21:00−14ssw2293100 0.0 101619
5 december, sun
sun500:00−14ssw2291100 0.0 101527
03:00−13ssw2290100 0.0 101519
06:00−14sw22905 0.0 101714
09:00−13wsw23905 0.0 101822
12:00−4wnw714701 0.0 1017560
15:00−3wnw814635 0.0 1017876
18:00−7wnw815650 0.0 1020373
21:00−9wnw714720 0.0 1023332
6 december, mon
mon600:00−10wnw714725 0.0 1025410
03:00−11w4107737 0.0 1026207
06:00−14sw248777 0.0 102744
09:00−13ssw3488100 0.0 102654
12:00−8ssw48815 0.0 1024306
15:00−4sw510715 0.0 1020386
18:00−9ssw33825 0.0 102132
21:00−11ssw33855 0.0 102132